Flag for Trinidad and Tobago Weather past 2 weeks in Scarborough, Trinidad and Tobago

Now
82 °F

Passing clouds.


Feels Like: 89 °F
Forecast: 77 / 88 °F
Wind: 10 mph from Southeast

Location: Crown Pt./ Scarborou

Current Time: Jul 24, 2014 at 9:16:38 AM

Latest Report: Jul 24, 2014 at 8:00 AM


Visibility: N/A

Pressure: 29.98 "Hg

Humidity: 79%

Dew point: 75 °F

Location of ScarboroughLocation

Historic Weather in Scarborough — Graph

°F

Scarborough temperature yesterday

Maximum temperature yesterday: 86 °F (at 10:00 AM)
Minimum temperature yesterday: 77 °F (at 12:00 AM)
Average temperature yesterday: 82 °F

Past Weeks' High & Low Weather Summary

 TemperatureHumidityPressure
High90 °F (Jul 9, 1:00 PM)94% (Jul 15, 2:00 AM)30.09 "Hg (Jul 15, 2:00 AM)
Low73 °F (Jul 10, 11:00 AM)52% (Jul 9, 1:00 PM)29.92 "Hg (Jul 10, 5:00 PM)
Average81 °F79%30.01 "Hg
* Reported Jul 9 8:00 AM — Jul 24 8:00 AM, Scarborough, Weather by CustomWeather, © 2014

Note: Actual official high and low records may vary slightly from our data, if they occured in-between our weather recording intervals... More about our weather records

Advertising

Scarborough weather history for previous 24 hours

 ConditionsComfort  
Time TempWeatherWind HumidityBarometerVisibility
8:00 AM
Jul 24
82 °FPassing clouds.10 mph79%29.98 "HgN/A
7:00 AM81 °FPassing clouds.10 mph79%29.98 "HgN/A
6:00 AM79 °FPassing clouds.10 mph84%29.95 "HgN/A
3:00 AM79 °FPassing clouds.9 mph79%29.95 "HgN/A
2:00 AM79 °FClear.No wind84%29.95 "Hg10 mi
12:00 AM79 °FClear.No wind84%29.98 "Hg10 mi
10:00 PM
Jul 23
79 °FPassing clouds.8 mph84%29.98 "HgN/A
9:00 PM79 °FPassing clouds.12 mph84%29.98 "HgN/A
8:00 PM81 °FPassing clouds.6 mph79%29.95 "HgN/A
7:00 PM81 °FPassing clouds.9 mph79%29.95 "HgN/A
6:00 PM82 °FPassing clouds.12 mph79%29.95 "HgN/A
5:00 PM84 °FPassing clouds.14 mph70%29.95 "HgN/A
3:00 PM86 °FPassing clouds.16 mph70%29.95 "HgN/A
2:00 PM84 °FScattered showers. Passing clouds.16 mph74%29.95 "HgN/A
1:00 PM86 °FScattered clouds.18 mph70%29.98 "HgN/A
12:00 PM86 °FScattered clouds.16 mph70%30.01 "HgN/A
11:00 AM86 °FScattered clouds.16 mph70%30.01 "HgN/A
10:00 AM86 °FScattered clouds.16 mph70%30.01 "HgN/A
9:00 AM84 °FScattered clouds.12 mph74%30.01 "HgN/A
Weather by CustomWeather, © 2014

See weather overviewHow to use our weather pages